Location: Bouillancy
(49.1149°N, 2.9308°E)
Time: 07:15:14
(UTC+00:00)

SL-08 RB Rocket - Pass Details

Date: 30 September 2020
Orbit: 647 x 684 km, 97.8° (Epoch: 29 October)

Event Time Altitude Azimuth Distance (km) Brightness Sun altitude
Exits shadow 19:22:56 16° 172° (S) 1,732 5.6 -19.3°
Maximum altitude 19:26:36 76° 256° (WSW) 681 3.8 -19.9°
Drops below altitude 10° 19:31:08 10° 344° (NNW) 2,071 6.7 -20.6°
Sets 19:33:22 0° 346° (NNW) 2,983 7.6 -21.0°
